Weather History for KAMA - January, 2013

Change the Weather History Date:

Saturday, January 5, 2013

  Actual Average Record
Temperature  
Mean Temperature 36 °F 36 °F  
Max Temperature 49 °F 50 °F 83 °F (1927)
Min Temperature 22 °F 23 °F -5 °F (1942)
Degree Days  
Heating Degree Days 29 29  
Month to date heating degree days 181 145  
Since 1 July heating degree days 1538 1862  
Cooling Degree Days 0 0  
Month to date cooling degree days 0 0  
Year to date cooling degree days 0 0  
Moisture  
Dew Point 19 °F    
Average Humidity 54    
Maximum Humidity 81    
Minimum Humidity 26    
Precipitation  
Precipitation 0.00 in 0.02 in 0.61 in (1960)
Month to date precipitation T 0.10  
Year to date precipitation T 0.10  
Snow  
Snow 0.00 in 0.10 in 12.40 in (1932)
Month to date snowfall T 0.5  
Since 1 July snowfall 2.1 6.9  
Snow Depth T in    
Sea Level Pressure  
Sea Level Pressure 30.23 in    
Wind  
Wind Speed 13 mph (WNW)    
Max Wind Speed 25 mph    
Max Gust Speed 32 mph    
Visibility 10 miles    
Events      
T = Trace of Precipitation, MM = Missing Value Source: NWS Daily Summary

Daily Weather History Graph

Daily Weather History Graph

Search for Another Location

Airport or City:

Trip Planner

Search our weather history database for the weather conditions in past years. The results will help you decide how hot, cold, wet, or windy it might be!

Date:

Astronomy

Jan. 05, 2013 Rise Set
Actual Time 7:55 AM CST 5:49 PM CST
Civil Twilight 7:27 AM CST 6:17 PM CST
Nautical Twilight 6:56 AM CST 6:48 PM CST
Astronomical Twilight 6:25 AM CST 7:19 PM CST
Moon 1:12 AM CST (1/5) 12:33 PM CST (1/5)
Length of Visible Light 10h 49m
Length of Day
9h 53m
Last Quarter, 44% of the Moon is Illuminated
Jan 5
Last Quarter
Jan 11
New
Jan 18
First Quarter
Jan 26
Full
Feb 3
Last Quarter

Hourly Weather History & Observations

Time (CST) Temp. Windchill Dew Point Humidity Pressure Visibility Wind Dir Wind Speed Gust Speed Precip Events Conditions
12:53 AM 30.0 °F 16.9 °F 23.0 °F 75% 30.14 in 10.0 mi SSW 21.9 mph 32.2 mph N/A   Overcast
1:53 AM 30.0 °F 16.6 °F 23.0 °F 75% 30.13 in 10.0 mi SW 23.0 mph 28.8 mph N/A   Mostly Cloudy
2:53 AM 28.0 °F 15.3 °F 21.9 °F 78% 30.13 in 10.0 mi SW 18.4 mph 23.0 mph N/A   Scattered Clouds
3:53 AM 26.1 °F 15.6 °F 21.0 °F 81% 30.13 in 10.0 mi SW 11.5 mph - N/A   Clear
4:53 AM 26.1 °F 14.0 °F 21.0 °F 81% 30.12 in 10.0 mi SW 15.0 mph - N/A   Clear
5:53 AM 25.0 °F 12.6 °F 19.9 °F 81% 30.12 in 10.0 mi WSW 15.0 mph - N/A   Clear
6:53 AM 24.1 °F 14.4 °F 18.0 °F 77% 30.14 in 10.0 mi WSW 9.2 mph - N/A   Clear
7:53 AM 23.0 °F 12.4 °F 15.1 °F 72% 30.17 in 10.0 mi West 10.4 mph - N/A   Clear
8:53 AM 26.1 °F 17.6 °F 17.1 °F 69% 30.19 in 10.0 mi NW 8.1 mph - N/A   Clear
9:53 AM 32.0 °F 24.2 °F 17.1 °F 54% 30.20 in 10.0 mi West 9.2 mph - N/A   Clear
10:53 AM 39.0 °F 30.3 °F 15.1 °F 38% 30.21 in 10.0 mi WNW 16.1 mph - N/A   Clear
11:53 AM 41.0 °F 31.6 °F 15.1 °F 35% 30.22 in 10.0 mi NW 20.7 mph 26.5 mph N/A   Clear
12:53 PM 44.1 °F 37.1 °F 18.0 °F 35% 30.20 in 10.0 mi NW 15.0 mph - N/A   Clear
1:53 PM 46.9 °F - 18.0 °F 32% 30.17 in 10.0 mi NW 17.3 mph 21.9 mph N/A   Clear
2:53 PM 48.0 °F - 16.0 °F 28% 30.19 in 10.0 mi NW 16.1 mph - N/A   Clear
3:53 PM 46.9 °F - 17.1 °F 30% 30.22 in 10.0 mi NNW 11.5 mph - N/A   Clear
4:53 PM 44.1 °F 37.4 °F 18.0 °F 35% 30.26 in 10.0 mi NNW 13.8 mph - N/A   Clear
5:53 PM 37.9 °F 28.9 °F 19.0 °F 47% 30.30 in 10.0 mi North 16.1 mph - N/A   Clear
6:53 PM 32.0 °F 24.8 °F 19.0 °F 59% 30.34 in 10.0 mi North 8.1 mph - N/A   Clear
7:53 PM 32.0 °F 23.6 °F 21.0 °F 64% 30.36 in 10.0 mi North 10.4 mph - N/A   Clear
8:53 PM 33.1 °F 26.1 °F 21.9 °F 64% 30.38 in 10.0 mi NNW 8.1 mph - N/A   Clear
9:53 PM 30.9 °F 24.3 °F 21.9 °F 69% 30.39 in 10.0 mi NW 6.9 mph - N/A   Clear
10:53 PM 28.9 °F 21.9 °F 21.0 °F 72% 30.40 in 10.0 mi NW 6.9 mph - N/A   Clear
11:53 PM 28.9 °F 21.1 °F 21.0 °F 72% 30.40 in 10.0 mi NW 8.1 mph - N/A   Clear